| time (UTC) | temp C | wind direction | speed KPH | gust KPH | rain 1hr cm | rain 24hr cm | rain mn cm | humidity % | barometer mb |
| 20260504050415 | 11 | 34 | 29.0 | 30.6 | 0.00 | 0.00 | 0.00 | 40 | 1006.9 |
| 20260504045912 | 11 | 40 | 37.0 | 43.5 | 0.00 | 0.00 | 0.00 | 40 | 1006.9 |
| 20260504045408 | 11 | 45 | 38.6 | 41.8 | 0.00 | 0.00 | 0.00 | 40 | 1006.7 |
| 20260504044904 | 11 | 58 | 16.1 | 17.7 | 0.00 | 0.00 | 0.00 | 43 | 1007.0 |
| 20260504044402 | 11 | 36 | 25.7 | 33.8 | 0.00 | 0.00 | 0.00 | 44 | 1006.8 |
| 20260504043859 | 11 | 32 | 30.6 | 35.4 | 0.00 | 0.00 | 0.00 | 44 | 1006.2 |
| 20260504043356 | 11 | 42 | 32.2 | 35.4 | 0.00 | 0.00 | 0.00 | 43 | 1006.2 |
| 20260504042853 | 12 | 22 | 24.1 | 29.0 | 0.00 | 0.00 | 0.00 | 45 | 1006.1 |
| 20260504042349 | 12 | 40 | 38.6 | 48.3 | 0.00 | 0.00 | 0.00 | 43 | 1005.9 |
| 20260504041846 | 12 | 19 | 30.6 | 41.8 | 0.00 | 0.00 | 0.00 | 42 | 1005.7 |
| 20260504041342 | 13 | 26 | 22.5 | 27.4 | 0.00 | 0.00 | 0.00 | 41 | 1005.8 |
| 20260504040838 | 12 | 16 | 22.5 | 25.7 | 0.00 | 0.00 | 0.00 | 42 | 1005.4 |
| 20260504040336 | 13 | 12 | 22.5 | 25.7 | 0.00 | 0.00 | 0.00 | 40 | 1005.2 |
| 20260504035831 | 13 | 29 | 20.9 | 24.1 | 0.00 | 0.00 | 0.00 | 40 | 1005.3 |
| 20260504035330 | 13 | 29 | 17.7 | 24.1 | 0.00 | 0.00 | 0.00 | 39 | 1004.9 |
| 20260504034826 | 13 | 21 | 19.3 | 22.5 | 0.00 | 0.00 | 0.00 | 39 | 1005.1 |
| 20260504034324 | 13 | 25 | 24.1 | 27.4 | 0.00 | 0.00 | 0.00 | 38 | 1004.9 |
| 20260504033821 | 13 | 42 | 16.1 | 17.7 | 0.00 | 0.00 | 0.00 | 38 | 1004.8 |
| 20260504033319 | 13 | 1 | 24.1 | 29.0 | 0.00 | 0.00 | 0.00 | 38 | 1004.8 |
| 20260504032815 | 14 | 30 | 24.1 | 30.6 | 0.00 | 0.00 | 0.00 | 38 | 1004.6 |
| 20260504032312 | 14 | 17 | 20.9 | 25.7 | 0.00 | 0.00 | 0.00 | 38 | 1004.4 |
| 20260504031809 | 14 | 16 | 24.1 | 25.7 | 0.00 | 0.00 | 0.00 | 39 | 1004.6 |
| 20260504031307 | 14 | 31 | 20.9 | 22.5 | 0.00 | 0.00 | 0.00 | 39 | 1004.5 |
| 20260504030803 | 14 | 24 | 24.1 | 27.4 | 0.00 | 0.00 | 0.00 | 39 | 1004.4 |
| 20260504030300 | 14 | 31 | 24.1 | 27.4 | 0.00 | 0.00 | 0.00 | 39 | 1004.3 |
| 20260504025756 | 15 | 40 | 24.1 | 29.0 | 0.00 | 0.00 | 0.00 | 39 | 1004.1 |
| 20260504025253 | 15 | 39 | 25.7 | 30.6 | 0.00 | 0.00 | 0.00 | 39 | 1004.1 |
| 20260504024749 | 15 | 24 | 16.1 | 20.9 | 0.00 | 0.00 | 0.00 | 39 | 1004.0 |
| 20260504024246 | 15 | 37 | 24.1 | 27.4 | 0.00 | 0.00 | 0.00 | 39 | 1004.1 |
| 20260504023743 | 15 | 37 | 19.3 | 24.1 | 0.00 | 0.00 | 0.00 | 39 | 1003.9 |
| 20260504023239 | 15 | 30 | 24.1 | 29.0 | 0.00 | 0.00 | 0.00 | 38 | 1004.1 |
| 20260504022735 | 15 | 36 | 20.9 | 25.7 | 0.00 | 0.00 | 0.00 | 38 | 1003.9 |
| 20260504022232 | 16 | 42 | 20.9 | 25.7 | 0.00 | 0.00 | 0.00 | 36 | 1004.1 |
| 20260504021729 | 16 | 21 | 14.5 | 16.1 | 0.00 | 0.00 | 0.00 | 34 | 1004.0 |
| 20260504021226 | 16 | 34 | 9.7 | 11.3 | 0.00 | 0.00 | 0.00 | 33 | 1004.1 |
| 20260504020723 | 17 | 40 | 19.3 | 20.9 | 0.00 | 0.00 | 0.00 | 32 | 1004.2 |
| 20260504020220 | 17 | 19 | 11.3 | 14.5 | 0.00 | 0.00 | 0.00 | 32 | 1004.1 |
| 20260504015716 | 17 | 30 | 8.0 | 9.7 | 0.00 | 0.00 | 0.00 | 29 | 1003.8 |
| 20260504015212 | 18 | 32 | 14.5 | 17.7 | 0.00 | 0.00 | 0.00 | 28 | 1004.0 |
| 20260504014708 | 18 | 25 | 11.3 | 14.5 | 0.00 | 0.00 | 0.00 | 28 | 1004.0 |
| 20260504014205 | 18 | 29 | 8.0 | 9.7 | 0.00 | 0.00 | 0.00 | 27 | 1004.2 |
| 20260504013703 | 18 | 344 | 14.5 | 14.5 | 0.00 | 0.00 | 0.00 | 26 | 1004.2 |
| 20260504013200 | 18 | 13 | 11.3 | 14.5 | 0.00 | 0.00 | 0.00 | 26 | 1004.3 |
| 20260504012656 | 19 | 357 | 16.1 | 20.9 | 0.00 | 0.00 | 0.00 | 25 | 1004.1 |
| 20260504012155 | 20 | 1 | 20.9 | 22.5 | 0.00 | 0.00 | 0.00 | 26 | 1004.1 |
| 20260504011651 | 20 | 30 | 14.5 | 20.9 | 0.00 | 0.00 | 0.00 | 25 | 1004.3 |
| 20260504011148 | 20 | 13 | 11.3 | 14.5 | 0.00 | 0.00 | 0.00 | 25 | 1004.1 |
| 20260504010643 | 20 | 10 | 14.5 | 16.1 | 0.00 | 0.00 | 0.00 | 25 | 1004.2 |
| 20260504010139 | 20 | 12 | 14.5 | 17.7 | 0.00 | 0.00 | 0.00 | 25 | 1004.0 |
| 20260504005637 | 20 | 8 | 11.3 | 12.9 | 0.00 | 0.00 | 0.00 | 25 | 1004.1 |
| 20260504005133 | 20 | 13 | 17.7 | 20.9 | 0.00 | 0.00 | 0.00 | 25 | 1004.1 |
| 20260504004632 | 20 | 19 | 17.7 | 24.1 | 0.00 | 0.00 | 0.00 | 25 | 1004.2 |
| 20260504004128 | 20 | 354 | 20.9 | 25.7 | 0.00 | 0.00 | 0.00 | 25 | 1004.3 |
| 20260504003624 | 21 | 353 | 8.0 | 11.3 | 0.00 | 0.00 | 0.00 | 26 | 1004.5 |
| 20260504003121 | 21 | 17 | 17.7 | 22.5 | 0.00 | 0.00 | 0.00 | 25 | 1004.4 |
| 20260504002618 | 21 | 16 | 20.9 | 24.1 | 0.00 | 0.00 | 0.00 | 25 | 1004.5 |
| 20260504002116 | 21 | 334 | 16.1 | 22.5 | 0.00 | 0.00 | 0.00 | 25 | 1004.4 |
| 20260504001614 | 21 | 4 | 19.3 | 24.1 | 0.00 | 0.00 | 0.00 | 25 | 1004.4 |
| 20260504001109 | 21 | 350 | 20.9 | 24.1 | 0.00 | 0.00 | 0.00 | 25 | 1004.8 |
| 20260504000607 | 21 | 0 | 11.3 | 14.5 | 0.00 | 0.00 | 0.00 | 26 | 1004.6 |
| 20260504000104 | 21 | 3 | 14.5 | 16.1 | 0.00 | 0.00 | 0.00 | 25 | 1004.6 |
| 20260503235602 | 21 | 8 | 20.9 | 22.5 | 0.00 | 0.00 | 0.00 | 25 | 1004.8 |
| 20260503235058 | 21 | 319 | 16.1 | 17.7 | 0.00 | 0.00 | 0.00 | 24 | 1004.6 |
| 20260503234556 | 21 | 352 | 19.3 | 22.5 | 0.00 | 0.00 | 0.00 | 25 | 1004.8 |
| 20260503234054 | 21 | 2 | 17.7 | 17.7 | 0.00 | 0.00 | 0.00 | 25 | 1004.8 |
| 20260503233550 | 20 | 13 | 19.3 | 22.5 | 0.00 | 0.00 | 0.00 | 25 | 1004.8 |
| 20260503233046 | 21 | 340 | 12.9 | 14.5 | 0.00 | 0.00 | 0.00 | 25 | 1004.9 |
| 20260503232544 | 21 | 0 | 20.9 | 25.7 | 0.00 | 0.00 | 0.00 | 25 | 1004.8 |
| 20260503232041 | 21 | 21 | 17.7 | 22.5 | 0.00 | 0.00 | 0.00 | 25 | 1004.9 |
| 20260503231539 | 21 | 10 | 12.9 | 14.5 | 0.00 | 0.00 | 0.00 | 25 | 1005.0 |
| 20260503231035 | 21 | 166 | 6.4 | 6.4 | 0.00 | 0.00 | 0.00 | 25 | 1004.9 |
| 20260503230532 | 21 | 333 | 19.3 | 22.5 | 0.00 | 0.00 | 0.00 | 24 | 1005.0 |
| 20260503230030 | 21 | 20 | 19.3 | 20.9 | 0.00 | 0.00 | 0.00 | 24 | 1005.1 |
| 20260503225526 | 21 | 318 | 11.3 | 16.1 | 0.00 | 0.00 | 0.00 | 24 | 1004.9 |
| 20260503225021 | 21 | 293 | 19.3 | 22.5 | 0.00 | 0.00 | 0.00 | 24 | 1005.2 |
| 20260503224519 | 21 | 340 | 9.7 | 12.9 | 0.00 | 0.00 | 0.00 | 24 | 1005.1 |
| 20260503224017 | 21 | 318 | 16.1 | 17.7 | 0.00 | 0.00 | 0.00 | 24 | 1005.2 |
| 20260503223515 | 21 | 284 | 25.7 | 30.6 | 0.00 | 0.00 | 0.00 | 24 | 1005.2 |
| 20260503223010 | 21 | 306 | 12.9 | 22.5 | 0.00 | 0.00 | 0.00 | 24 | 1005.2 |
| 20260503222508 | 21 | 303 | 16.1 | 20.9 | 0.00 | 0.00 | 0.00 | 24 | 1005.0 |
| 20260503222006 | 21 | 329 | 6.4 | 11.3 | 0.00 | 0.00 | 0.00 | 25 | 1005.4 |
| 20260503221504 | 21 | 338 | 17.7 | 29.0 | 0.00 | 0.00 | 0.00 | 24 | 1005.2 |
| 20260503221001 | 21 | 10 | 11.3 | 14.5 | 0.00 | 0.00 | 0.00 | 25 | 1005.2 |
| 20260503220457 | 21 | 11 | 9.7 | 12.9 | 0.00 | 0.00 | 0.00 | 25 | 1005.4 |
| 20260503215954 | 21 | 296 | 11.3 | 14.5 | 0.00 | 0.00 | 0.00 | 25 | 1005.4 |
| 20260503215451 | 21 | 345 | 14.5 | 17.7 | 0.00 | 0.00 | 0.00 | 24 | 1005.5 |
| 20260503214948 | 21 | 283 | 12.9 | 14.5 | 0.00 | 0.00 | 0.00 | 25 | 1005.8 |
| 20260503214446 | 21 | 8 | 8.0 | 9.7 | 0.00 | 0.00 | 0.00 | 25 | 1005.9 |
| 20260503213943 | 21 | 319 | 17.7 | 22.5 | 0.00 | 0.00 | 0.00 | 25 | 1005.8 |
| 20260503213442 | 21 | 316 | 27.4 | 29.0 | 0.00 | 0.00 | 0.00 | 24 | 1005.9 |
| 20260503212937 | 21 | 266 | 11.3 | 12.9 | 0.00 | 0.00 | 0.00 | 25 | 1005.7 |
| 20260503212435 | 21 | 2 | 12.9 | 14.5 | 0.00 | 0.00 | 0.00 | 25 | 1006.0 |
| 20260503211932 | 21 | 281 | 9.7 | 11.3 | 0.00 | 0.00 | 0.00 | 26 | 1006.0 |
| 20260503211429 | 20 | 297 | 20.9 | 29.0 | 0.00 | 0.00 | 0.00 | 25 | 1006.0 |
| 20260503210924 | 21 | 288 | 11.3 | 12.9 | 0.00 | 0.00 | 0.00 | 25 | 1006.2 |
| 20260503210422 | 21 | 307 | 12.9 | 16.1 | 0.00 | 0.00 | 0.00 | 25 | 1006.4 |
| 20260503205916 | 21 | 290 | 11.3 | 17.7 | 0.00 | 0.00 | 0.00 | 25 | 1006.4 |
| 20260503205414 | 20 | 355 | 12.9 | 16.1 | 0.00 | 0.00 | 0.00 | 25 | 1006.3 |
| 20260503204910 | 20 | 6 | 14.5 | 16.1 | 0.00 | 0.00 | 0.00 | 25 | 1006.4 |
| 20260503204408 | 20 | 318 | 11.3 | 12.9 | 0.00 | 0.00 | 0.00 | 25 | 1006.3 |
| 20260503203904 | 21 | 266 | 19.3 | 24.1 | 0.00 | 0.00 | 0.00 | 25 | 1006.7 |
| 20260503203401 | 20 | 277 | 16.1 | 24.1 | 0.00 | 0.00 | 0.00 | 26 | 1007.0 |
| 20260503202858 | 20 | 308 | 17.7 | 20.9 | 0.00 | 0.00 | 0.00 | 25 | 1006.6 |
| 20260503202356 | 20 | 281 | 25.7 | 29.0 | 0.00 | 0.00 | 0.00 | 26 | 1006.7 |
| 20260503201855 | 21 | 300 | 11.3 | 14.5 | 0.00 | 0.00 | 0.00 | 26 | 1006.8 |
| 20260503201351 | 20 | 276 | 11.3 | 12.9 | 0.00 | 0.00 | 0.00 | 26 | 1006.9 |
| 20260503200849 | 20 | 274 | 12.9 | 14.5 | 0.00 | 0.00 | 0.00 | 27 | 1006.8 |
| 20260503200344 | 20 | 6 | 6.4 | 6.4 | 0.00 | 0.00 | 0.00 | 27 | 1006.8 |
| 20260503195842 | 20 | 337 | 20.9 | 25.7 | 0.00 | 0.00 | 0.00 | 27 | 1006.8 |
| 20260503195338 | 20 | 274 | 6.4 | 11.3 | 0.00 | 0.00 | 0.00 | 26 | 1007.6 |
| 20260503194836 | 20 | 329 | 14.5 | 20.9 | 0.00 | 0.00 | 0.00 | 27 | 1007.1 |
| 20260503194331 | 20 | 5 | 17.7 | 20.9 | 0.00 | 0.00 | 0.00 | 27 | 1007.3 |
| 20260503193828 | 20 | 340 | 11.3 | 14.5 | 0.00 | 0.00 | 0.00 | 27 | 1007.3 |
| 20260503193324 | 20 | 12 | 8.0 | 11.3 | 0.00 | 0.00 | 0.00 | 27 | 1007.6 |
| 20260503192820 | 20 | 323 | 11.3 | 12.9 | 0.00 | 0.00 | 0.00 | 28 | 1007.3 |
| 20260503192315 | 19 | 316 | 11.3 | 14.5 | 0.00 | 0.00 | 0.00 | 28 | 1007.4 |
| 20260503191812 | 19 | 325 | 17.7 | 20.9 | 0.00 | 0.00 | 0.00 | 27 | 1007.6 |
| 20260503191309 | 19 | 274 | 16.1 | 17.7 | 0.00 | 0.00 | 0.00 | 28 | 1007.6 |
| 20260503190806 | 19 | 323 | 6.4 | 6.4 | 0.00 | 0.00 | 0.00 | 30 | 1007.9 |
| 20260503190303 | 20 | 296 | 8.0 | 11.3 | 0.00 | 0.00 | 0.00 | 27 | 1007.8 |
| 20260503185800 | 19 | 310 | 19.3 | 22.5 | 0.00 | 0.00 | 0.00 | 28 | 1007.9 |
| 20260503185255 | 18 | 344 | 11.3 | 12.9 | 0.00 | 0.00 | 0.00 | 28 | 1008.0 |
| 20260503184755 | 19 | 321 | 9.7 | 12.9 | 0.00 | 0.00 | 0.00 | 29 | 1007.9 |
| 20260503184252 | -17 | 0.0 | 0.0 | 0.00 | 0.00 | 0.00 | 1007.9 | ||
| 20260503183748 | -17 | 0.0 | 0.0 | 0.00 | 0.00 | 0.00 | 1008.0 | ||
| 20260503183245 | -17 | 0.0 | 0.0 | 0.00 | 0.00 | 0.00 | 1008.3 | ||
| 20260503182743 | -17 | 0.0 | 0.0 | 0.00 | 0.00 | 0.00 | 1008.0 | ||
| 20260503182242 | -17 | 0.0 | 0.0 | 0.00 | 0.00 | 0.00 | 1008.2 | ||
| 20260503181738 | -17 | 0.0 | 0.0 | 0.00 | 0.00 | 0.00 | 1008.1 | ||
| 20260503181235 | -17 | 0.0 | 0.0 | 0.00 | 0.00 | 0.00 | 1008.3 | ||
| 20260503180731 | -17 | 0.0 | 0.0 | 0.00 | 0.00 | 0.00 | 1008.3 | ||
| 20260503180230 | -17 | 0.0 | 0.0 | 0.00 | 0.00 | 0.00 | 1008.5 | ||
| 20260503175726 | -17 | 0.0 | 0.0 | 0.00 | 0.00 | 0.00 | 1008.6 | ||
| 20260503175224 | -17 | 0.0 | 0.0 | 0.00 | 0.00 | 0.00 | 1008.3 | ||
| 20260503174720 | 18 | 311 | 8.0 | 12.9 | 0.00 | 0.00 | 0.00 | 29 | 1008.3 |
| 20260503174218 | 18 | 311 | 8.0 | 12.9 | 0.00 | 0.00 | 0.00 | 29 | 1008.5 |
| 20260503173713 | 18 | 355 | 16.1 | 16.1 | 0.00 | 0.00 | 0.00 | 28 | 1008.5 |
| 20260503173209 | 18 | 358 | 16.1 | 17.7 | 0.00 | 0.00 | 0.00 | 29 | 1008.6 |
| 20260503172706 | 18 | 18 | 17.7 | 22.5 | 0.00 | 0.00 | 0.00 | 29 | 1008.8 |
| 20260503172203 | 18 | 5 | 16.1 | 22.5 | 0.00 | 0.00 | 0.00 | 29 | 1009.0 |
| 20260503171659 | 18 | 12 | 14.5 | 17.7 | 0.00 | 0.00 | 0.00 | 30 | 1008.7 |
| 20260503171157 | 17 | 19 | 12.9 | 14.5 | 0.00 | 0.00 | 0.00 | 31 | 1008.7 |
| 20260503170654 | 17 | 9 | 17.7 | 24.1 | 0.00 | 0.00 | 0.00 | 29 | 1008.7 |
| 20260503170151 | 17 | 17 | 16.1 | 24.1 | 0.00 | 0.00 | 0.00 | 29 | 1008.9 |
| 20260503160113 | 17 | 29 | 19.3 | 27.4 | 0.00 | 0.00 | 0.00 | 33 | 1008.7 |
| 20260503150542 | 15 | 29 | 14.5 | 20.9 | 0.00 | 0.00 | 0.00 | 33 | 1009.0 |
| 20260503130932 | 8 | 12 | 1.6 | 3.2 | 0.00 | 0.00 | 0.00 | 68 | 1009.4 |
| 20260503130430 | 8 | 314 | 3.2 | 4.8 | 0.00 | 0.00 | 0.00 | 68 | 1009.2 |
| 20260503110829 | 9 | 335 | 8.0 | 9.7 | 0.00 | 0.00 | 0.00 | 65 | 1009.9 |
| 20260503110325 | 8 | 333 | 8.0 | 11.3 | 0.00 | 0.00 | 0.00 | 66 | 1010.1 |
| 20260503100251 | 5 | 1 | 3.2 | 4.8 | 0.00 | 0.00 | 0.00 | 78 | 1010.7 |
| 20260503090211 | 6 | 350 | 3.2 | 3.2 | 0.00 | 0.00 | 0.00 | 73 | 1010.6 |
| 20260503081138 | 7 | 319 | 3.2 | 3.2 | 0.00 | 0.00 | 0.00 | 68 | 1011.5 |
| 20260503080634 | 7 | 325 | 3.2 | 3.2 | 0.00 | 0.00 | 0.00 | 68 | 1011.4 |